SCP
0 0 0 0 0 0 0 0 3 2 3 5 5 3 2 2 1 1 1 1 2 1 0 1 1 1 0 0 0 0 0 0 0 0 0 0 0 0 0 0 0 0 0
0 0 0 0 0 0 0 0 1 6 5 4 5 3 2 1 1 1 0 1 2 2 2 1 1 1 1 0 0 0 0 0 0 0 0 0 0 0 0 0 0 0 0
0 0 0 0 0 0 0 0 0 3 6 5 2 1 1 1 1 1 1 1 2 2 2 2 1 1 1 1 0 0 0 0 0 0 0 0 0 0 0 0 0 0 0
-0 0 0 0 0 0 0 0 0 1 2 1 2 1 1 1 1 1 1 2 2 2 2 2 1 2 1 1 0 0 0 0 0 0 0 0 0 0 0 0 0 0 0
-0 0 -0 0 0 0 0 0 0 0 0 0 1 1 1 0 0 1 2 3 3 3 3 2 1 1 1 1 0 0 0 0 0 0 0 0 0 0 0 0 0 0 0
0 0 0 0 0 0 0 0 0 0 0 0 0 0 0 0 2 2 3 3 3 3 3 2 1 1 1 1 0 0 0 0 0 0 0 0 0 0 0 0 0 0 0
0 0 0 0 0 0 0 0 0 0 0 0 0 0 0 0 1 3 3 3 3 3 2 2 1 1 1 1 0 0 0 0 0 0 0 0 0 0 0 0 0 0 0
-0 0 0 0 0 0 0 0 0 0 0 0 0 0 0 0 1 2 3 3 3 2 1 1 1 1 1 0 0 0 0 0 0 0 0 0 0 0 0 0 0 0 0
-0 0 0 0 0 0 0 0 0 0 0 0 0 1 1 1 2 3 3 2 2 2 1 1 1 1 0 0 0 0 0 0 0 0 0 0 0 0 0 0 0 0 0
-0 0 0 0 0 0 0 0 0 0 0 0 0 0 1 2 3 3 2 1 1 1 1 1 1 0 0 0 0 0 0 0 0 0 0 0 0 0 0 0 0 0 0
0 0 0 0 0 0 0 0 0 0 0 0 0 1 2 3 3 2 2 1 1 1 1 1 0 0 0 0 0 0 0 0 0 0 0 0 0 0 0 0 0 0 0
0 0 0 0 0 0 1 0 0 0 1 2 2 2 2 3 3 2 1 1 1 1 1 0 0 0 0 0 0 0 0 0 0 0 0 0 0 0 0 0 0 0 0
0 0 0 0 0 0 1 0 0 1 2 3 3 3 3 3 2 2 1 1 1 1 0 0 0 0 0 0 0 0 0 0 0 0 0 0 0 0 0 0 0 0 -0
0 0 0 0 0 0 2 0 1 2 3 4 4 2 2 1 1 1 1 1 1 0 0 0 0 0 0 0 0 0 0 0 0 0 0 0 0 0 0 0 0 0 0
0 0 0 0 0 -0 0 1 2 3 4 3 2 1 1 1 1 0 0 0 0 0 0 0 0 0 0 0 0 0 0 0 0 0 0 0 0 0 0 0 0 0 0
0 0 0 0 -0 -0 0 0 1 2 2 2 1 1 1 0 0 0 0 0 0 0 0 0 0 0 0 0 0 0 0 0 0 0 0 0 0 0 -0 -0 0 -0 0
0 0 0 0 0 -0 -0 -0 0 1 1 1 1 1 0 0 0 0 0 0 0 0 0 0 0 0 0 0 0 0 0 0 0 0 0 0 0 0 0 0 0 -0 0
-0 0 0 0 0 -0 -0 0 0 0 1 1 1 0 0 0 0 0 0 0 0 0 0 0 0 0 0 0 0 0 0 0 0 0 0 0 0 0 0 0 0 0 0
-0 0 0 0 0 -0 -0 0 0 0 1 1 0 0 0 0 0 0 0 0 0 0 0 0 0 0 0 0 0 0 0 0 0 0 0 0 0 0 -0 0 0 0 0
-0 -0 0 0 0 -0 -0 0 0 0 0 0 0 0 0 0 0 0 0 0 0 0 0 0 0 0 0 0 0 0 0 0 0 0 0 0 0 0 -0 0 0 0 0
-0 -0 -0 0 0 0 -0 -0 -0 0 0 0 0 0 0 0 0 0 0 0 0 0 0 0 0 0 0 0 0 0 0 0 0 0 0 0 0 0 -0 0 0 0 0
-0 -0 -0 -0 0 0 -0 -0 0 0 0 0 0 0 0 0 0 0 0 0 0 0 0 0 0 0 0 0 0 0 0 0 0 0 0 0 0 0 -0 0 -0 -0 0
0 -0 -0 -0 0 0 0 -0 0 0 0 0 0 0 0 0 0 0 0 0 0 0 0 0 0 0 0 0 0 0 0 0 0 0 0 0 0 0 -0 -0 -0 0 0
0 0 -0 0 0 0 0 -0 -0 -0 0 0 0 0 0 0 0 0 0 0 0 0 0 0 0 0 0 0 0 0 0 0 0 0 0 0 0 0 0 -0 0 0 0
0 0 0 -0 -0 0 0 0 0 0 0 0 0 0 0 0 0 0 0 0 0 0 0 0 0 0 0 0 0 0 0 0 0 0 0 0 0 0 0 0 0 0 0
-0 -0 -0 -0 -0 0 0 0 0 0 0 0 0 0 0 0 0 -0 -0 -0 -0 0 0 -0 -0 0 -0 -0 -0 -0 0 -0 -0 0 0 0 0 0 0 0 0 0 0
Wind_Speed_500mb
69 79 81 73 75 72 81 55 77 73 75 74 65 65 65 61 58 57 53 52 53 56 54 54 48 49 50 43 42 42 46 45 39 36 37 41 48 48 45 35 31 29 33
74 78 75 94 80 79 84 72 80 79 79 77 74 71 68 67 62 55 55 57 55 52 50 49 46 47 49 43 47 45 44 43 46 43 41 41 42 44 40 32 33 32 32
73 81 80 81 100 84 79 80 64 87 88 83 78 73 69 69 64 62 61 58 58 51 46 43 43 43 47 44 48 50 45 46 44 41 33 13 18 18 19 20 21 25 28
75 81 82 84 89 96 82 73 65 88 97 87 85 78 75 75 68 60 63 60 53 53 47 43 41 40 44 43 38 40 43 43 44 44 43 42 34 18 12 10 12 15 21
70 76 80 83 77 84 95 81 73 79 104 95 86 73 68 64 55 57 59 47 55 56 48 43 40 39 41 39 41 40 39 41 41 41 43 35 32 33 28 23 16 16 18
67 70 78 87 80 77 86 90 58 80 99 91 81 69 68 63 57 60 55 50 47 57 49 43 37 35 38 37 39 36 29 32 38 36 38 35 36 34 27 25 19 18 17
81 77 76 77 83 86 80 81 78 66 85 80 78 73 70 60 59 56 49 48 47 60 51 43 35 34 43 38 37 35 34 31 33 31 34 35 34 32 26 23 16 18 18
84 84 72 78 82 88 79 87 84 86 82 87 91 81 72 62 57 55 48 49 50 56 48 39 31 33 39 38 38 31 30 30 31 33 34 32 33 33 32 26 22 16 20
80 83 75 69 79 74 77 87 80 84 88 92 88 83 72 68 63 62 53 47 51 52 48 37 33 43 41 36 38 32 31 31 30 32 31 29 29 28 28 25 23 22 18
82 68 70 68 61 68 76 88 93 82 91 87 82 74 75 71 69 64 56 50 54 55 43 37 42 47 40 35 33 28 29 28 28 29 27 26 24 25 25 24 21 21 20
79 58 73 80 51 41 59 71 64 63 61 59 65 72 68 66 58 62 57 56 50 54 41 44 50 46 40 35 32 27 25 25 25 25 23 21 20 23 24 25 24 21 16
71 45 62 99 56 41 32 43 47 46 47 55 56 56 58 52 57 57 55 58 55 51 45 48 48 47 38 32 29 28 27 26 19 19 16 19 20 21 23 24 29 27 16
56 27 79 103 69 56 33 39 42 46 44 42 49 52 51 54 55 56 56 56 58 54 53 48 48 41 33 26 24 19 27 25 17 9 13 17 21 20 19 20 24 28 23
32 34 89 104 74 39 31 42 45 45 50 56 55 51 50 49 55 58 58 56 57 58 52 47 41 38 27 25 21 22 28 24 22 17 16 18 17 19 20 21 24 28 26
45 83 76 69 38 56 39 20 45 48 61 59 52 50 50 52 58 60 56 56 57 53 48 46 41 33 32 27 26 29 24 22 25 22 20 16 16 16 16 18 30 26 28
61 64 69 62 64 65 40 17 40 59 59 51 55 58 62 65 63 59 57 55 54 53 47 41 38 35 30 33 31 28 24 25 21 20 17 15 16 20 23 22 26 25 25
57 60 68 77 67 61 49 29 40 53 56 59 61 68 65 63 57 56 54 55 53 51 40 39 39 33 32 35 31 30 28 25 22 19 15 13 12 20 27 26 25 27 26
63 73 74 79 76 47 22 11 52 25 58 62 68 67 59 56 57 57 56 52 48 43 40 40 35 31 32 32 29 29 26 23 21 19 18 11 13 19 25 26 25 26 28
61 64 62 67 67 50 31 26 43 52 65 69 63 55 60 62 56 58 55 51 48 45 39 35 38 37 33 29 29 30 27 24 24 22 19 15 15 20 24 22 24 28 25
60 60 61 61 56 58 61 36 46 45 70 69 60 65 57 59 63 59 56 51 45 40 38 39 35 30 30 29 25 24 26 29 28 27 19 20 16 17 20 20 20 27 25
59 57 55 57 50 57 40 52 61 63 68 59 65 62 58 55 52 50 50 49 45 42 38 37 33 28 27 28 26 24 24 25 23 25 23 23 22 20 22 17 19 23 25
64 50 53 54 45 44 24 47 18 57 60 66 69 64 57 51 47 43 44 41 41 40 39 37 35 31 31 28 27 24 25 27 25 23 19 21 22 25 21 22 24 21 23
56 52 51 50 41 36 31 29 19 27 67 71 68 65 58 50 47 44 45 40 43 44 44 43 39 37 34 31 28 25 28 28 24 21 15 17 21 23 26 25 24 23 24
56 52 49 44 39 31 12 56 37 65 72 70 68 56 49 53 43 39 37 41 44 45 45 42 40 35 33 32 31 30 27 26 26 24 18 17 18 19 24 29 29 23 17
55 46 40 44 40 44 41 16 38 75 71 69 63 54 49 46 44 40 39 35 32 34 39 39 36 32 24 24 25 27 28 27 24 22 21 22 22 22 28 31 30 25 20
54 46 44 40 38 43 5 18 46 82 79 74 63 57 45 51 46 44 43 34 28 27 25 23 24 22 18 13 21 20 18 18 16 19 21 23 25 30 33 43 37 31 24
Wind_Direction_500mb
303 288 266 263 264 272 263 269 227 218 207 207 215 220 228 237 238 243 251 257 265 267 269 268 263 253 253 252 239 241 247 251 245 238 243 261 268 274 279 272 270 277 278
304 306 295 266 263 263 264 259 230 223 209 207 216 228 244 240 242 248 259 268 268 267 265 266 261 254 250 244 238 235 239 244 247 246 255 265 272 278 273 268 262 263 268
307 305 307 293 264 253 262 260 247 227 219 221 225 226 232 239 245 250 260 268 268 261 264 265 259 251 243 247 240 236 238 241 240 243 244 249 246 266 272 268 265 259 260
301 301 304 305 286 255 257 256 256 235 229 231 225 229 238 241 250 259 268 269 265 259 260 259 252 244 243 240 233 235 239 241 242 242 245 249 254 270 282 272 267 267 267
309 301 298 294 297 273 255 254 257 244 231 228 227 230 233 243 257 265 262 254 255 258 254 249 241 241 242 219 226 238 237 240 241 244 247 244 249 259 256 279 273 259 266
326 311 302 297 290 285 256 247 247 242 230 227 232 232 239 245 255 255 248 247 251 251 246 242 244 239 221 217 225 233 226 239 243 248 244 246 249 249 253 266 269 267 271
327 314 302 292 290 287 272 238 235 229 222 225 235 236 244 249 251 247 247 246 246 238 235 238 227 223 220 217 225 222 225 233 236 238 246 248 250 242 253 253 261 262 268
325 318 302 293 285 278 272 240 231 224 225 227 233 239 247 247 248 243 245 244 241 240 239 236 228 203 209 214 214 219 220 235 234 245 244 244 240 241 243 256 259 242 248
321 314 312 304 289 260 258 245 226 225 221 225 230 244 243 248 244 243 241 241 236 238 228 232 210 209 213 214 212 216 227 234 241 240 242 240 238 239 244 253 265 238 232
316 309 328 328 295 259 237 235 236 225 225 229 231 237 243 244 247 235 236 237 229 227 223 215 204 206 206 211 213 219 230 236 237 239 232 238 238 240 244 245 243 231 234
307 305 332 329 328 254 223 211 206 208 210 219 229 237 243 243 234 228 231 230 220 214 207 201 200 202 203 207 219 228 234 231 223 225 229 230 233 244 241 239 228 222 227
311 290 331 331 326 291 208 209 212 214 219 228 231 237 235 229 220 220 228 220 212 202 199 193 197 200 206 216 228 228 227 209 209 204 227 234 231 245 238 235 222 211 215
337 27 317 323 323 307 282 250 238 231 231 226 220 219 214 213 220 223 212 202 198 196 187 189 193 195 203 216 212 221 209 203 194 216 249 239 240 240 237 224 204 203 204
8 5 306 300 306 327 301 266 240 237 228 209 203 209 209 212 204 195 193 199 203 186 181 185 187 187 200 206 214 220 197 219 213 231 247 253 250 239 225 213 204 200 199
334 299 303 324 351 351 317 270 232 213 197 192 191 198 194 186 184 191 195 183 174 177 174 173 178 192 208 210 206 195 203 211 211 227 254 244 243 222 212 210 198 201 215
296 309 328 0 357 2 342 289 207 189 189 195 196 189 183 180 181 183 176 168 165 168 171 178 185 195 201 191 202 205 209 213 230 247 239 241 248 203 193 184 192 208 212
307 324 337 351 355 355 344 292 220 206 190 190 186 174 172 167 168 172 168 167 174 172 177 181 192 197 199 191 202 201 218 231 240 234 224 244 209 192 193 198 203 215 213
325 331 340 344 357 355 7 122 222 247 193 178 174 163 162 166 163 162 163 165 166 172 182 185 190 195 190 194 202 207 217 234 222 206 201 193 178 173 181 196 201 202 192
321 325 333 338 343 349 360 256 249 245 190 173 166 162 168 165 166 161 164 167 170 175 186 193 186 186 197 206 205 214 217 212 195 192 198 191 186 185 184 196 205 198 195
315 320 324 328 343 351 338 275 258 219 180 163 168 166 168 166 164 168 174 172 176 179 186 181 185 195 201 205 201 202 197 199 194 184 201 198 195 189 182 186 201 198 200
309 313 319 315 334 351 341 277 268 185 167 168 169 162 158 159 165 172 174 174 180 183 183 184 189 198 199 202 202 199 195 198 191 194 206 209 201 206 193 184 206 208 198
303 301 308 311 327 352 338 231 229 159 155 159 159 159 157 156 162 165 166 176 184 188 186 188 186 184 191 199 201 194 189 193 200 198 208 207 211 207 208 203 190 194 200
299 290 299 309 322 348 311 245 199 190 165 165 163 157 154 161 167 179 178 181 186 186 184 185 186 184 188 195 197 193 189 191 192 203 204 202 207 211 208 202 198 197 200
295 297 299 308 319 333 261 226 252 192 170 164 160 159 161 163 169 175 181 181 179 181 183 184 187 186 192 198 201 201 197 200 200 203 216 205 207 200 199 198 193 195 209
290 296 303 299 310 321 309 226 168 176 165 164 159 160 160 160 159 164 165 171 177 190 191 193 194 195 195 200 208 210 205 210 210 216 220 207 204 200 191 195 192 194 201
287 288 287 286 303 321 250 117 161 166 161 156 155 153 151 155 153 149 147 151 156 168 187 196 189 179 170 173 171 177 190 195 209 220 211 211 210 206 200 197 193 195 191
Wind_Speed_850mb
69 79 81 73 75 72 81 55 77 73 75 74 65 65 65 61 58 57 53 52 53 56 54 54 48 49 50 43 42 42 46 45 39 36 37 41 48 48 45 35 31 29 33
74 78 75 94 80 79 84 72 80 79 79 77 74 71 68 67 62 55 55 57 55 52 50 49 46 47 49 43 47 45 44 43 46 43 41 41 42 44 40 32 33 32 32
73 81 80 81 100 84 79 80 64 87 88 83 78 73 69 69 64 62 61 58 58 51 46 43 43 43 47 44 48 50 45 46 44 41 33 13 18 18 19 20 21 25 28
75 81 82 84 89 96 82 73 65 88 97 87 85 78 75 75 68 60 63 60 53 53 47 43 41 40 44 43 38 40 43 43 44 44 43 42 34 18 12 10 12 15 21
70 76 80 83 77 84 95 81 73 79 104 95 86 73 68 64 55 57 59 47 55 56 48 43 40 39 41 39 41 40 39 41 41 41 43 35 32 33 28 23 16 16 18
67 70 78 87 80 77 86 90 58 80 99 91 81 69 68 63 57 60 55 50 47 57 49 43 37 35 38 37 39 36 29 32 38 36 38 35 36 34 27 25 19 18 17
81 77 76 77 83 86 80 81 78 66 85 80 78 73 70 60 59 56 49 48 47 60 51 43 35 34 43 38 37 35 34 31 33 31 34 35 34 32 26 23 16 18 18
84 84 72 78 82 88 79 87 84 86 82 87 91 81 72 62 57 55 48 49 50 56 48 39 31 33 39 38 38 31 30 30 31 33 34 32 33 33 32 26 22 16 20
80 83 75 69 79 74 77 87 80 84 88 92 88 83 72 68 63 62 53 47 51 52 48 37 33 43 41 36 38 32 31 31 30 32 31 29 29 28 28 25 23 22 18
82 68 70 68 61 68 76 88 93 82 91 87 82 74 75 71 69 64 56 50 54 55 43 37 42 47 40 35 33 28 29 28 28 29 27 26 24 25 25 24 21 21 20
79 58 73 80 51 41 59 71 64 63 61 59 65 72 68 66 58 62 57 56 50 54 41 44 50 46 40 35 32 27 25 25 25 25 23 21 20 23 24 25 24 21 16
71 45 62 99 56 41 32 43 47 46 47 55 56 56 58 52 57 57 55 58 55 51 45 48 48 47 38 32 29 28 27 26 19 19 16 19 20 21 23 24 29 27 16
56 27 79 103 69 56 33 39 42 46 44 42 49 52 51 54 55 56 56 56 58 54 53 48 48 41 33 26 24 19 27 25 17 9 13 17 21 20 19 20 24 28 23
32 34 89 104 74 39 31 42 45 45 50 56 55 51 50 49 55 58 58 56 57 58 52 47 41 38 27 25 21 22 28 24 22 17 16 18 17 19 20 21 24 28 26
45 83 76 69 38 56 39 20 45 48 61 59 52 50 50 52 58 60 56 56 57 53 48 46 41 33 32 27 26 29 24 22 25 22 20 16 16 16 16 18 30 26 28
61 64 69 62 64 65 40 17 40 59 59 51 55 58 62 65 63 59 57 55 54 53 47 41 38 35 30 33 31 28 24 25 21 20 17 15 16 20 23 22 26 25 25
57 60 68 77 67 61 49 29 40 53 56 59 61 68 65 63 57 56 54 55 53 51 40 39 39 33 32 35 31 30 28 25 22 19 15 13 12 20 27 26 25 27 26
63 73 74 79 76 47 22 11 52 25 58 62 68 67 59 56 57 57 56 52 48 43 40 40 35 31 32 32 29 29 26 23 21 19 18 11 13 19 25 26 25 26 28
61 64 62 67 67 50 31 26 43 52 65 69 63 55 60 62 56 58 55 51 48 45 39 35 38 37 33 29 29 30 27 24 24 22 19 15 15 20 24 22 24 28 25
60 60 61 61 56 58 61 36 46 45 70 69 60 65 57 59 63 59 56 51 45 40 38 39 35 30 30 29 25 24 26 29 28 27 19 20 16 17 20 20 20 27 25
59 57 55 57 50 57 40 52 61 63 68 59 65 62 58 55 52 50 50 49 45 42 38 37 33 28 27 28 26 24 24 25 23 25 23 23 22 20 22 17 19 23 25
64 50 53 54 45 44 24 47 18 57 60 66 69 64 57 51 47 43 44 41 41 40 39 37 35 31 31 28 27 24 25 27 25 23 19 21 22 25 21 22 24 21 23
56 52 51 50 41 36 31 29 19 27 67 71 68 65 58 50 47 44 45 40 43 44 44 43 39 37 34 31 28 25 28 28 24 21 15 17 21 23 26 25 24 23 24
56 52 49 44 39 31 12 56 37 65 72 70 68 56 49 53 43 39 37 41 44 45 45 42 40 35 33 32 31 30 27 26 26 24 18 17 18 19 24 29 29 23 17
55 46 40 44 40 44 41 16 38 75 71 69 63 54 49 46 44 40 39 35 32 34 39 39 36 32 24 24 25 27 28 27 24 22 21 22 22 22 28 31 30 25 20
54 46 44 40 38 43 5 18 46 82 79 74 63 57 45 51 46 44 43 34 28 27 25 23 24 22 18 13 21 20 18 18 16 19 21 23 25 30 33 43 37 31 24
Wind_Direction_850mb
303 288 266 263 264 272 263 269 227 218 207 207 215 220 228 237 238 243 251 257 265 267 269 268 263 253 253 252 239 241 247 251 245 238 243 261 268 274 279 272 270 277 278
304 306 295 266 263 263 264 259 230 223 209 207 216 228 244 240 242 248 259 268 268 267 265 266 261 254 250 244 238 235 239 244 247 246 255 265 272 278 273 268 262 263 268
307 305 307 293 264 253 262 260 247 227 219 221 225 226 232 239 245 250 260 268 268 261 264 265 259 251 243 247 240 236 238 241 240 243 244 249 246 266 272 268 265 259 260
301 301 304 305 286 255 257 256 256 235 229 231 225 229 238 241 250 259 268 269 265 259 260 259 252 244 243 240 233 235 239 241 242 242 245 249 254 270 282 272 267 267 267
309 301 298 294 297 273 255 254 257 244 231 228 227 230 233 243 257 265 262 254 255 258 254 249 241 241 242 219 226 238 237 240 241 244 247 244 249 259 256 279 273 259 266
326 311 302 297 290 285 256 247 247 242 230 227 232 232 239 245 255 255 248 247 251 251 246 242 244 239 221 217 225 233 226 239 243 248 244 246 249 249 253 266 269 267 271
327 314 302 292 290 287 272 238 235 229 222 225 235 236 244 249 251 247 247 246 246 238 235 238 227 223 220 217 225 222 225 233 236 238 246 248 250 242 253 253 261 262 268
325 318 302 293 285 278 272 240 231 224 225 227 233 239 247 247 248 243 245 244 241 240 239 236 228 203 209 214 214 219 220 235 234 245 244 244 240 241 243 256 259 242 248
321 314 312 304 289 260 258 245 226 225 221 225 230 244 243 248 244 243 241 241 236 238 228 232 210 209 213 214 212 216 227 234 241 240 242 240 238 239 244 253 265 238 232
316 309 328 328 295 259 237 235 236 225 225 229 231 237 243 244 247 235 236 237 229 227 223 215 204 206 206 211 213 219 230 236 237 239 232 238 238 240 244 245 243 231 234
307 305 332 329 328 254 223 211 206 208 210 219 229 237 243 243 234 228 231 230 220 214 207 201 200 202 203 207 219 228 234 231 223 225 229 230 233 244 241 239 228 222 227
311 290 331 331 326 291 208 209 212 214 219 228 231 237 235 229 220 220 228 220 212 202 199 193 197 200 206 216 228 228 227 209 209 204 227 234 231 245 238 235 222 211 215
337 27 317 323 323 307 282 250 238 231 231 226 220 219 214 213 220 223 212 202 198 196 187 189 193 195 203 216 212 221 209 203 194 216 249 239 240 240 237 224 204 203 204
8 5 306 300 306 327 301 266 240 237 228 209 203 209 209 212 204 195 193 199 203 186 181 185 187 187 200 206 214 220 197 219 213 231 247 253 250 239 225 213 204 200 199
334 299 303 324 351 351 317 270 232 213 197 192 191 198 194 186 184 191 195 183 174 177 174 173 178 192 208 210 206 195 203 211 211 227 254 244 243 222 212 210 198 201 215
296 309 328 0 357 2 342 289 207 189 189 195 196 189 183 180 181 183 176 168 165 168 171 178 185 195 201 191 202 205 209 213 230 247 239 241 248 203 193 184 192 208 212
307 324 337 351 355 355 344 292 220 206 190 190 186 174 172 167 168 172 168 167 174 172 177 181 192 197 199 191 202 201 218 231 240 234 224 244 209 192 193 198 203 215 213
325 331 340 344 357 355 7 122 222 247 193 178 174 163 162 166 163 162 163 165 166 172 182 185 190 195 190 194 202 207 217 234 222 206 201 193 178 173 181 196 201 202 192
321 325 333 338 343 349 360 256 249 245 190 173 166 162 168 165 166 161 164 167 170 175 186 193 186 186 197 206 205 214 217 212 195 192 198 191 186 185 184 196 205 198 195
315 320 324 328 343 351 338 275 258 219 180 163 168 166 168 166 164 168 174 172 176 179 186 181 185 195 201 205 201 202 197 199 194 184 201 198 195 189 182 186 201 198 200
309 313 319 315 334 351 341 277 268 185 167 168 169 162 158 159 165 172 174 174 180 183 183 184 189 198 199 202 202 199 195 198 191 194 206 209 201 206 193 184 206 208 198
303 301 308 311 327 352 338 231 229 159 155 159 159 159 157 156 162 165 166 176 184 188 186 188 186 184 191 199 201 194 189 193 200 198 208 207 211 207 208 203 190 194 200
299 290 299 309 322 348 311 245 199 190 165 165 163 157 154 161 167 179 178 181 186 186 184 185 186 184 188 195 197 193 189 191 192 203 204 202 207 211 208 202 198 197 200
295 297 299 308 319 333 261 226 252 192 170 164 160 159 161 163 169 175 181 181 179 181 183 184 187 186 192 198 201 201 197 200 200 203 216 205 207 200 199 198 193 195 209
290 296 303 299 310 321 309 226 168 176 165 164 159 160 160 160 159 164 165 171 177 190 191 193 194 195 195 200 208 210 205 210 210 216 220 207 204 200 191 195 192 194 201
287 288 287 286 303 321 250 117 161 166 161 156 155 153 151 155 153 149 147 151 156 168 187 196 189 179 170 173 171 177 190 195 209 220 211 211 210 206 200 197 193 195 191